Regional Weather Roundup
Issued by NWS

Home | Current Version | Previous Version | Graphics & Text | Print | Product List | Glossary On
Versions: 1 2 3 4 5 6 7 8 9 10 11 12 13 14 15 16 17 18 19 20 21 22 23 24 25 26 27 28 29 30 31 32 33 34 35 36 37 38 39 40 41 42 43 44 45 46 47 48 49 50
000
ASUS43 KLSX 311007
RWRMO

WEATHER SUMMARY FOR MISSOURI
NATIONAL WEATHER SERVICE SPRINGFIELD MO
500 AM CDT TUE MAY 31 2016

NOTE: "FAIR" INDICATES FEW OR NO CLOUDS BELOW 12,000 FEET WITH NO
       SIGNIFICANT WEATHER AND/OR OBSTRUCTIONS TO VISIBILITY.
       CURRENT SKY AND/OR WEATHER CONDITIONS ARE NOT AVAILABLE FOR
       CHILLICOTHE AND FARMINGTON.

MOZ001>031-035>038-043-044-053-054-311100-
...NORTHERN AND WESTERN MISSOURI...

CITY           SKY/WX    TMP DP  RH WIND       PRES   REMARKS
KANSAS CTY INT CLOUDY    62  59  90 CALM      29.94S
KANSAS C DTWN  LGT RAIN  65  61  87 E5        29.93S
LEE`S SUMMIT   CLOUDY    63  61  93 E3        29.95R
ST JOSEPH      MOCLDY    63  61  93 S6        29.94R
CHILLICOTHE      N/A     62  60  93 CALM      29.96S
KIRKSVILLE     CLOUDY    63  61  93 CALM      29.97R

$$
MOZ066>068-077>081-088>096-101>105-311100-
...SOUTHWEST MISSOURI...

CITY           SKY/WX    TMP DP  RH WIND       PRES   REMARKS
SPRINGFIELD    CLOUDY    65  62  90 SE7       29.94S
JOPLIN         CLOUDY    65  64  97 SE3       29.95R

$$
MOZ032>034-039>042-045>050-055>058-069>072-311100-
...CENTRAL MISSOURI...

CITY           SKY/WX    TMP DP  RH WIND       PRES   REMARKS
COLUMBIA       CLOUDY    64  62  93 SE5       29.97F
JEFFERSON CITY LGT RAIN  65  64  97 E3        29.97S
ROLLA          CLOUDY    63  61  93 E5        29.97F
SEDALIA        CLOUDY    65  62  90 SE7       29.97R
WHITEMAN AFB   CLOUDY    63  63 100 SE5       29.94R
WARRENSBURG    CLOUDY    61  61 100 CALM      29.95R

$$
MOZ051-052-059>065-311100-
...EAST CENTRAL MISSOURI...

CITY           SKY/WX    TMP DP  RH WIND       PRES   REMARKS
ST LOUIS INTL  CLOUDY    70  63  78 CALM      29.97F
SPIRIT OF STL  MOCLDY    66  65  96 CALM      29.96F
ST CHARLES     MOCLDY    69  64  84 CALM      29.96S

$$
MOZ072>076-082>087-097>100-106>115-311100-
...SOUTH CENTRAL AND SOUTHEAST MISSOURI...

CITY           SKY/WX    TMP DP  RH WIND       PRES   REMARKS
CAPE GIRARDEAU CLOUDY    67  66  97 CALM      29.95F
FARMINGTON     LGT RAIN  66  64  93 CALM      29.99S
POPLAR BLUFF   CLOUDY    69  64  84 N5        29.94F
WEST PLAINS    CLOUDY    64  60  87 E3        29.99R

$$



USA.gov is the U.S. government's official web portal to all federal, state and local government web resources and services.